sat.trackr.live / text

‹ back to catalog

STARLINK-31644

NORAD 59391 · 2024-062T

PAYLOAD ACTIVE UNKNOWN

§ Identity

Operator
Country
US
Launch date
2024-04-02
Launch site
AFWTR
Launch vehicle
Mass (kg)
RCS (m²)

Purposes: comms

External: N2YO · Heavens-Above · Gunter

§ Orbital elements

Epoch: 2026-09-21T21:06:54.210240Z

Period
93.85 min
Inclination
53.1614°
Eccentricity
0.0001301
Mean motion
15.34365177 rev/d
Perigee alt
461.9 km
Apogee alt
463.7 km
Semi-major
6,840.9 km
B*
7.3121e-5
RAAN
63.3477°
Arg perigee
78.2836°
Mean anomaly
281.8313°
Rev number
13,972

§ Raw data

STARLINK-316441 59391U 24062T   26264.87979410  .00002092  00000+0  73121-4 0  99962 59391  53.1614  63.3477 0001301  78.2836 281.8313 15.34365177139728

JSON: /api/v1/satellites/59391 · /tle

For live sub-satellite position, see the globe view (requires WebGL).

§ Visibility from observer

Set your observer location to see the next 7 days of passes ≥ 10°. The values pass through the URL so the page stays shareable.

No JS? Fill the form by hand. The geolocation button needs JavaScript.